Location: Chiroubles
(46.1812°N, 4.6660°E)
Time: 22:04:40
(UTC+00:00)

SR - Pass Details

Date: 29 November 2020
Orbit: 575 x 880 km, 66.7° (Epoch: 23 January)

Event Time Altitude Azimuth Distance (km) Brightness Sun altitude
Rises 19:33:19 0° 256° (WSW) 2,842 ? -36.6°
Reaches altitude 10° 19:36:00 10° 273° (W) 1,979 ? -37.1°
Enters shadow 19:37:19 16° 288° (WNW) 1,663 ? -37.3°
